Home > Weather > Parma > Past weeks

Flag for Italy Weather for the Past 2 Weeks in Parma, Italy

Now
48 °F

Light rain. Fog.


Feels Like: 45 °F
Forecast: 40 / 53 °F
Wind: 8 mph from Northeast

Location: Parma

Current Time: Feb 9, 2016 at 7:44:58 PM

Latest Report: Feb 9, 2016 at 6:50 PM


Visibility: 1 mi

Pressure: 29.56 "Hg

Humidity: 94%

Dew point: 46 °F

Location of ParmaLocation

Historic Weather in Parma — Graph

°F

Parma Temperature Yesterday

Maximum temperature yesterday: 52 °F (at 3:50 PM)
Minimum temperature yesterday: 39 °F (at 9:50 PM)
Average temperature yesterday: 46 °F

High & Low Weather Summary for the Past Weeks

 TemperatureHumidityPressure
High59 °F (Feb 4, 4:50 PM)100% (Jan 27, 7:00 AM)30.48 "Hg (Jan 27, 7:00 AM)
Low28 °F (Feb 5, 7:50 AM)27% (Feb 4, 4:50 PM)29.59 "Hg (Feb 9, 5:50 PM)
Average45 °F84%30.21 "Hg
* Reported Jan 25 5:50 PM — Feb 9 5:50 PM, Parma, Weather by CustomWeather, © 2016

Note: Actual official high and low records may vary slightly from our data, if they occured in-between our weather recording intervals... More about our weather records

Advertising

Parma Weather History for the Previous 24 Hours

 ConditionsComfort  
Time TempWeatherWind HumidityBarometerVisibility
5:50 PM
Tue, Feb 9
48 °FLight rain. Fog.9 mph94%29.59 "Hg1 mi
4:50 PM50 °FFog.8 mph88%29.65 "Hg1 mi
3:50 PM50 °FFog.9 mph88%29.68 "Hg2 mi
2:50 PM52 °FFog.6 mph82%29.74 "Hg3 mi
1:50 PM52 °FFog.5 mph82%29.80 "Hg2 mi
12:50 PM50 °FFog.7 mph82%29.83 "Hg3 mi
11:50 AM48 °FFog.8 mph87%29.89 "Hg3 mi
10:50 AM45 °FFog.7 mph93%29.92 "Hg1 mi
9:50 AM46 °FFog.2 mph87%29.92 "Hg2 mi
8:50 AM37 °FScattered clouds.3 mph100%29.92 "Hg1 mi
7:50 AM37 °FFog.3 mph93%29.98 "Hg1 mi
7:00 AM36 °FFog.3 mph100%29.95 "Hg1 mi
10:50 PM
Mon, Feb 8
39 °FFog.2 mph93%29.98 "Hg2 mi
9:50 PM39 °FFog.3 mph93%30.01 "Hg2 mi
8:50 PM43 °FFog.2 mph93%30.01 "Hg3 mi
7:50 PM43 °FPassing clouds.3 mph93%30.01 "Hg4 mi
Weather by CustomWeather, © 2016

See weather overviewHow to use our weather pages